Simultaneous Nadir Overpasses (SNOs) Predictions

Prediction of SNOs between AQUA and GOES-15 Satellite Orbit:

Table of predicted SNOs for the next 14.0 days since TLE Epoch: 8/15/2025
Index Date Time (AQUA) AQUA Lat,Lon GOES-15 Lat,Lon Distance(km) Time Diff (sec)
1 08/15/2025 22:27:56 -1.30, 65.30 -0.51, 61.63 418.28 80
2 08/16/2025 10:47:10 0.29, 60.65 0.50, 61.59 107.08 80
3 08/18/2025 10:26:41 1.41, 65.66 0.51, 61.63 459.99 80
4 08/18/2025 22:45:47 -0.39, 61.05 -0.50, 61.67 70.14 80
5 08/20/2025 22:25:17 -1.49, 66.07 -0.52, 61.72 496.25 80
6 08/21/2025 10:44:31 0.43, 61.43 0.51, 61.69 29.96 80
7 08/23/2025 22:43:06 -0.50, 61.85 -0.51, 61.77 9.19 80
8 08/26/2025 10:41:50 0.62, 62.22 0.50, 61.79 49.08 80
9 08/26/2025 23:00:54 0.44, 57.62 -0.48, 61.82 478.35 80
10 08/28/2025 22:40:22 -0.64, 62.65 -0.50, 61.86 88.37 80
11 08/29/2025 10:59:37 -0.33, 57.99 0.48, 61.86 440.03 80
